Home   Weather   Trondheim   Past weeks

Flag for Norway Past Weather in Trondheim, Norway — Yesterday and Last 2 Weeks

Now
43 °F

Passing clouds.


Feels Like: 35 °F
Forecast: 34 / 40 °F
Wind: 16 mph from West

Location: Trondheim / Vaernes

Current Time: Jan 23, 2017 at 3:56:25 am

Latest Report: Jan 23, 2017 at 1:50 am


Visibility: N/A

Pressure: 29.86 "Hg

Humidity: 71%

Dew Point: 34 °F

Location of TrondheimLocation

Past Weather in Trondheim — Graph

°F

Trondheim Temperature Yesterday

Maximum temperature yesterday: 45 °F (at 1:20 pm)
Minimum temperature yesterday: 39 °F (at 12:50 am)
Average temperature yesterday: 43 °F

High & Low Weather Summary for the Past Weeks

 TemperatureHumidityPressure
High48 °F (Jan 18, 3:20 pm)100% (Jan 11, 9:50 pm)30.30 "Hg (Jan 11, 9:50 pm)
Low23 °F (Jan 13, 5:50 am)53% (Jan 11, 12:50 am)28.59 "Hg (Jan 11, 1:50 pm)
Average37 °F83%29.72 "Hg
* Reported Jan 8 1:20 am — Jan 23 1:50 am, Trondheim, Weather by CustomWeather, © 2017

Note: Actual official high and low records may vary slightly from our data, if they occured in-between our weather recording intervals... More about our weather records

Advertising

Trondheim Weather History for the Previous 24 Hours

Scroll right to see more
 ConditionsComfort  
Time TempWeatherWind HumidityBarometerVisibility
1:50 am
Mon, Jan 23
43 °FPassing clouds.16 mph71%29.86 "HgN/A
12:50 am43 °FPassing clouds.13 mph71%29.86 "HgN/A
12:20 am43 °FSprinkles. Passing clouds.13 mph66%29.89 "HgN/A
11:50 pm
Sun, Jan 22
43 °FSprinkles. Passing clouds.13 mph66%29.89 "HgN/A
11:20 pm45 °FPartly cloudy.12 mph61%29.89 "HgN/A
10:50 pm45 °FPassing clouds.10 mph61%29.92 "HgN/A
10:20 pm43 °FPassing clouds.9 mph66%29.92 "HgN/A
9:50 pm45 °FOvercast.10 mph61%29.92 "HgN/A
9:20 pm43 °FOvercast.12 mph71%29.92 "HgN/A
8:50 pm45 °FPartly cloudy.15 mph61%29.95 "HgN/A
8:20 pm43 °FPartly cloudy.13 mph71%29.95 "HgN/A
7:50 pm43 °FPartly cloudy.9 mph71%29.95 "HgN/A
7:20 pm45 °FMostly cloudy.13 mph66%29.98 "HgN/A
6:50 pm43 °FMostly cloudy.10 mph71%29.98 "HgN/A
6:20 pm43 °FOvercast.12 mph71%29.98 "HgN/A
5:50 pm43 °FPartly cloudy.10 mph71%29.98 "HgN/A
5:20 pm43 °FDrizzle. Mostly cloudy.13 mph71%30.01 "HgN/A
4:50 pm43 °FOvercast.9 mph71%30.01 "HgN/A
4:20 pm43 °FPassing clouds.9 mph71%30.01 "HgN/A
3:50 pm45 °FPartly cloudy.12 mph66%30.04 "HgN/A
3:20 pm45 °FBroken clouds.13 mph66%30.04 "HgN/A
2:50 pm45 °FBroken clouds.16 mph66%30.04 "HgN/A
2:20 pm43 °FBroken clouds.16 mph71%30.04 "HgN/A
1:50 pm45 °FOvercast.20 mph66%30.04 "HgN/A
1:20 pm45 °FPartly sunny.20 mph71%30.07 "HgN/A
12:50 pm43 °FPartly sunny.18 mph76%30.07 "HgN/A
12:20 pm43 °FPartly sunny.12 mph76%30.07 "HgN/A
11:50 am43 °FPartly sunny.12 mph76%30.09 "HgN/A
11:20 am43 °FPartly sunny.12 mph76%30.09 "HgN/A
10:50 am43 °FPartly sunny.9 mph76%30.09 "HgN/A
10:20 am43 °FPartly sunny.12 mph76%30.09 "HgN/A
9:50 am43 °FPartly sunny.13 mph76%30.09 "HgN/A
9:20 am43 °FBroken clouds.10 mph76%30.09 "HgN/A
8:50 am43 °FPartly cloudy.9 mph81%30.09 "HgN/A
8:20 am43 °FPassing clouds.8 mph81%30.12 "HgN/A
7:50 am43 °FPassing clouds.8 mph81%30.12 "HgN/A
7:20 am43 °FPassing clouds.8 mph81%30.12 "HgN/A
6:50 am41 °FPassing clouds.8 mph87%30.12 "HgN/A
6:20 am43 °FPassing clouds.10 mph81%30.12 "HgN/A
5:50 am43 °FPassing clouds.14 mph81%30.15 "HgN/A
5:20 am39 °FPassing clouds.3 mph100%30.15 "HgN/A
4:50 am39 °FPassing clouds.3 mph100%30.15 "HgN/A
3:50 am39 °FPassing clouds.2 mph100%30.15 "HgN/A
Weather by CustomWeather, © 2017

See weather overviewHow to use our weather pages